Time,TemperatureF,DewpointF,PressureIn,WindDirection,WindDirectionDegrees,WindSpeedMPH,WindSpeedGustMPH,Humidity,HourlyPrecipIn,Conditions,Clouds,dailyrainin,SoftwareType,DateUTC
2013-11-14 00:00:00,33.0,25.6,29.87,SW,225,3.0,5.0,74,0.00,,,-99.99,Weather View 32 v60,2013-11-14 06:00:00,
2013-11-14 00:05:00,33.0,25.6,29.87,WSW,248,2.0,5.0,74,0.00,,,-99.99,Weather View 32 v60,2013-11-14 06:05:00,
2013-11-14 00:10:00,33.0,25.9,29.87,WSW,248,3.0,5.0,75,0.00,,,-99.99,Weather View 32 v60,2013-11-14 06:10:00,
2013-11-14 00:15:00,33.0,25.9,29.87,WNW,292,1.0,5.0,75,0.00,,,-99.99,Weather View 32 v60,2013-11-14 06:15:00,
2013-11-14 00:20:00,33.0,25.9,29.87,SW,225,1.0,5.0,75,0.00,,,-99.99,Weather View 32 v60,2013-11-14 06:20:00,
2013-11-14 00:25:00,33.0,25.9,29.87,West,270,3.0,5.0,75,0.00,,,-99.99,Weather View 32 v60,2013-11-14 06:25:00,
2013-11-14 00:30:00,33.0,25.9,29.87,WSW,248,3.0,5.0,75,0.00,,,-99.99,Weather View 32 v60,2013-11-14 06:30:00,
2013-11-14 00:35:00,33.0,26.3,29.87,SW,225,1.0,5.0,76,0.00,,,-99.99,Weather View 32 v60,2013-11-14 06:35:00,
2013-11-14 00:40:00,33.0,26.3,29.87,SSW,202,4.0,5.0,76,0.00,,,-99.99,Weather View 32 v60,2013-11-14 06:40:00,
2013-11-14 00:45:00,33.0,26.3,29.87,SSW,202,1.0,5.0,76,0.00,,,-99.99,Weather View 32 v60,2013-11-14 06:45:00,
2013-11-14 00:50:00,33.0,26.3,29.87,SSW,202,1.0,5.0,76,0.00,,,-99.99,Weather View 32 v60,2013-11-14 06:50:00,
2013-11-14 00:55:00,33.0,26.3,29.87,WSW,248,2.0,5.0,76,0.00,,,-99.99,Weather View 32 v60,2013-11-14 06:55:00,
2013-11-14 01:00:00,33.0,26.6,29.87,West,270,1.0,5.0,77,0.00,,,-99.99,Weather View 32 v60,2013-11-14 07:00:00,
2013-11-14 01:05:00,33.0,26.6,29.87,WSW,248,2.0,5.0,77,0.00,,,-99.99,Weather View 32 v60,2013-11-14 07:05:00,
2013-11-14 01:10:00,33.0,26.6,29.87,SW,225,3.0,5.0,77,0.00,,,-99.99,Weather View 32 v60,2013-11-14 07:10:00,
2013-11-14 01:15:00,34.0,27.5,29.86,West,270,3.0,5.0,77,0.00,,,-99.99,Weather View 32 v60,2013-11-14 07:15:00,
2013-11-14 01:20:00,34.0,27.5,29.87,SSW,202,1.0,5.0,77,0.00,,,-99.99,Weather View 32 v60,2013-11-14 07:20:00,
2013-11-14 01:25:00,34.0,27.5,29.86,WSW,248,3.0,5.0,77,0.00,,,-99.99,Weather View 32 v60,2013-11-14 07:25:00,
2013-11-14 01:30:00,34.0,27.5,29.86,SW,225,3.0,5.0,77,0.00,,,-99.99,Weather View 32 v60,2013-11-14 07:30:00,
2013-11-14 01:35:00,34.0,27.9,29.86,SSW,202,4.0,6.0,78,0.00,,,-99.99,Weather View 32 v60,2013-11-14 07:35:00,
2013-11-14 01:40:00,34.0,27.9,29.85,West,270,3.0,6.0,78,0.00,,,-99.99,Weather View 32 v60,2013-11-14 07:40:00,
2013-11-14 01:45:00,34.0,27.9,29.86,West,270,2.0,6.0,78,0.00,,,-99.99,Weather View 32 v60,2013-11-14 07:45:00,
2013-11-14 01:50:00,34.0,27.9,29.86,WSW,248,2.0,6.0,78,0.00,,,-99.99,Weather View 32 v60,2013-11-14 07:50:00,
2013-11-14 01:55:00,34.0,27.9,29.86,WSW,248,1.0,6.0,78,0.00,,,-99.99,Weather View 32 v60,2013-11-14 07:55:00,
2013-11-14 02:00:00,34.0,27.9,29.86,West,270,1.0,6.0,78,0.00,,,-99.99,Weather View 32 v60,2013-11-14 08:00:00,
2013-11-14 02:05:00,34.0,27.9,29.86,SSW,202,1.0,6.0,78,0.00,,,-99.99,Weather View 32 v60,2013-11-14 08:05:00,
2013-11-14 02:10:00,34.0,27.9,29.86,SW,225,2.0,6.0,78,0.00,,,-99.99,Weather View 32 v60,2013-11-14 08:10:00,
2013-11-14 02:15:00,35.0,28.8,29.85,SW,225,3.0,6.0,78,0.00,,,-99.99,Weather View 32 v60,2013-11-14 08:15:00,
2013-11-14 02:20:00,35.0,28.8,29.85,SSW,202,1.0,6.0,78,0.00,,,-99.99,Weather View 32 v60,2013-11-14 08:20:00,
2013-11-14 02:25:00,35.0,28.8,29.86,West,270,1.0,6.0,78,0.00,,,-99.99,Weather View 32 v60,2013-11-14 08:25:00,
2013-11-14 02:30:00,35.0,28.8,29.86,SW,225,1.0,6.0,78,0.00,,,-99.99,Weather View 32 v60,2013-11-14 08:30:00,
2013-11-14 02:35:00,35.0,28.8,29.86,SW,225,2.0,5.0,78,0.00,,,-99.99,Weather View 32 v60,2013-11-14 08:35:00,
2013-11-14 02:40:00,35.0,28.8,29.86,SW,225,0.0,5.0,78,0.00,,,-99.99,Weather View 32 v60,2013-11-14 08:40:00,
2013-11-14 02:45:00,35.0,28.8,29.86,WSW,248,2.0,5.0,78,0.00,,,-99.99,Weather View 32 v60,2013-11-14 08:45:00,
2013-11-14 02:50:00,35.0,28.8,29.86,WNW,292,2.0,5.0,78,0.00,,,-99.99,Weather View 32 v60,2013-11-14 08:50:00,
2013-11-14 02:55:00,35.0,28.8,29.86,WSW,248,1.0,5.0,78,0.00,,,-99.99,Weather View 32 v60,2013-11-14 08:55:00,
2013-11-14 03:00:00,35.0,28.8,29.85,SW,225,4.0,5.0,78,0.00,,,-99.99,Weather View 32 v60,2013-11-14 09:00:00,
2013-11-14 03:05:00,35.0,28.8,29.85,WSW,248,3.0,5.0,78,0.00,,,-99.99,Weather View 32 v60,2013-11-14 09:05:00,
2013-11-14 03:10:00,35.0,28.8,29.85,SW,225,2.0,5.0,78,0.00,,,-99.99,Weather View 32 v60,2013-11-14 09:10:00,
2013-11-14 03:15:00,35.0,28.8,29.85,WSW,248,2.0,5.0,78,0.00,,,-99.99,Weather View 32 v60,2013-11-14 09:15:00,
2013-11-14 03:20:00,35.0,28.8,29.86,West,270,1.0,5.0,78,0.00,,,-99.99,Weather View 32 v60,2013-11-14 09:20:00,
2013-11-14 03:25:00,35.0,28.8,29.86,WSW,248,2.0,5.0,78,0.00,,,-99.99,Weather View 32 v60,2013-11-14 09:25:00,
2013-11-14 03:30:00,35.0,28.8,29.86,SSW,202,2.0,6.0,78,0.00,,,-99.99,Weather View 32 v60,2013-11-14 09:30:00,
2013-11-14 03:35:00,35.0,28.8,29.86,SSW,202,3.0,6.0,78,0.00,,,-99.99,Weather View 32 v60,2013-11-14 09:35:00,
2013-11-14 03:40:00,35.0,28.5,29.85,SSW,202,1.0,6.0,77,0.00,,,-99.99,Weather View 32 v60,2013-11-14 09:40:00,
2013-11-14 03:45:00,35.0,28.5,29.85,SW,225,2.0,6.0,77,0.00,,,-99.99,Weather View 32 v60,2013-11-14 09:45:00,
2013-11-14 03:55:00,35.0,28.5,29.85,SW,225,1.0,6.0,77,0.00,,,-99.99,Weather View 32 v60,2013-11-14 09:55:00,
2013-11-14 04:00:00,35.0,28.5,29.85,WSW,248,1.0,6.0,77,0.00,,,-99.99,Weather View 32 v60,2013-11-14 10:00:00,
2013-11-14 04:05:00,35.0,28.5,29.85,WSW,248,4.0,6.0,77,0.00,,,-99.99,Weather View 32 v60,2013-11-14 10:05:00,
2013-11-14 04:20:00,34.0,27.5,29.85,SSW,202,4.0,6.0,77,0.00,,,-99.99,Weather View 32 v60,2013-11-14 10:20:00,
2013-11-14 04:25:00,34.0,27.5,29.85,WSW,248,1.0,6.0,77,0.00,,,-99.99,Weather View 32 v60,2013-11-14 10:25:00,
2013-11-14 04:35:00,34.0,27.9,29.84,SSW,202,1.0,6.0,78,0.00,,,-99.99,Weather View 32 v60,2013-11-14 10:35:00,
2013-11-14 04:45:00,34.0,27.9,29.84,SSW,202,1.0,6.0,78,0.00,,,-99.99,Weather View 32 v60,2013-11-14 10:45:00,
2013-11-14 04:50:00,35.0,28.5,29.85,SW,225,1.0,6.0,77,0.00,,,-99.99,Weather View 32 v60,2013-11-14 10:50:00,
2013-11-14 05:00:00,34.0,27.9,29.85,WNW,292,1.0,6.0,78,0.00,,,-99.99,Weather View 32 v60,2013-11-14 11:00:00,
2013-11-14 05:05:00,34.0,27.9,29.85,WSW,248,0.0,6.0,78,0.00,,,-99.99,Weather View 32 v60,2013-11-14 11:05:00,
2013-11-14 05:10:00,35.0,28.5,29.85,SSW,202,5.0,6.0,77,0.00,,,-99.99,Weather View 32 v60,2013-11-14 11:10:00,
2013-11-14 05:15:00,34.0,27.5,29.85,SW,225,1.0,6.0,77,0.00,,,-99.99,Weather View 32 v60,2013-11-14 11:15:00,
2013-11-14 05:25:00,33.0,26.9,29.86,West,270,1.0,5.0,78,0.00,,,-99.99,Weather View 32 v60,2013-11-14 11:25:00,
2013-11-14 05:30:00,34.0,27.9,29.84,SW,225,4.0,6.0,78,0.00,,,-99.99,Weather View 32 v60,2013-11-14 11:30:00,
2013-11-14 05:40:00,34.0,27.9,29.84,West,270,1.0,6.0,78,0.00,,,-99.99,Weather View 32 v60,2013-11-14 11:40:00,
2013-11-14 05:45:00,33.0,26.9,29.85,SW,225,2.0,5.0,78,0.00,,,-99.99,Weather View 32 v60,2013-11-14 11:45:00,
2013-11-14 05:50:00,34.0,27.9,29.85,West,270,1.0,6.0,78,0.00,,,-99.99,Weather View 32 v60,2013-11-14 11:50:00,
2013-11-14 05:55:00,34.0,27.9,29.85,SW,225,0.0,6.0,78,0.00,,,-99.99,Weather View 32 v60,2013-11-14 11:55:00,
2013-11-14 06:00:00,33.0,27.2,29.87,West,270,3.0,5.0,79,0.00,,,-99.99,Weather View 32 v60,2013-11-14 12:00:00,
2013-11-14 06:10:00,33.0,27.2,29.87,WSW,248,1.0,5.0,79,0.00,,,-99.99,Weather View 32 v60,2013-11-14 12:10:00,
2013-11-14 06:15:00,33.0,27.2,29.87,SW,225,1.0,5.0,79,0.00,,,-99.99,Weather View 32 v60,2013-11-14 12:15:00,
2013-11-14 06:20:00,34.0,27.9,29.85,WNW,292,3.0,5.0,78,0.00,,,-99.99,Weather View 32 v60,2013-11-14 12:20:00,
2013-11-14 06:30:00,33.0,27.2,29.87,SW,225,2.0,5.0,79,0.00,,,-99.99,Weather View 32 v60,2013-11-14 12:30:00,
2013-11-14 06:35:00,33.0,26.9,29.85,WSW,248,4.0,5.0,78,0.00,,,-99.99,Weather View 32 v60,2013-11-14 12:35:00,
2013-11-14 06:40:00,33.0,26.9,29.85,SW,225,2.0,5.0,78,0.00,,,-99.99,Weather View 32 v60,2013-11-14 12:40:00,
2013-11-14 06:50:00,33.0,27.2,29.86,SW,225,3.0,6.0,79,0.00,,,-99.99,Weather View 32 v60,2013-11-14 12:50:00,
2013-11-14 07:05:00,33.0,27.2,29.87,West,270,1.0,5.0,79,0.00,,,-99.99,Weather View 32 v60,2013-11-14 13:05:00,
2013-11-14 07:20:00,34.0,28.5,29.86,West,270,2.0,6.0,80,0.00,,,-99.99,Weather View 32 v60,2013-11-14 13:20:00,
2013-11-14 07:25:00,33.0,27.2,29.87,SSW,202,2.0,5.0,79,0.00,,,-99.99,Weather View 32 v60,2013-11-14 13:25:00,
2013-11-14 07:30:00,34.0,28.5,29.86,North,0,0.0,6.0,80,0.00,,,-99.99,Weather View 32 v60,2013-11-14 13:30:00,
2013-11-14 07:34:00,33.0,27.2,29.87,SW,225,2.0,5.0,79,0.00,,,-99.99,Weather View 32 v60,2013-11-14 13:34:00,
2013-11-14 07:35:00,34.0,28.5,29.85,WSW,248,0.0,6.0,80,0.00,,,-99.99,Weather View 32 v60,2013-11-14 13:35:00,
2013-11-14 07:40:00,33.0,27.2,29.87,SW,225,1.0,6.0,79,0.00,,,-99.99,Weather View 32 v60,2013-11-14 13:40:00,
2013-11-14 07:45:00,33.0,27.2,29.86,SW,225,3.0,6.0,79,0.00,,,-99.99,Weather View 32 v60,2013-11-14 13:45:00,
2013-11-14 07:55:00,33.0,27.5,29.87,SW,225,2.0,6.0,80,0.00,,,-99.99,Weather View 32 v60,2013-11-14 13:55:00,
2013-11-14 08:00:00,33.0,27.5,29.87,SSW,202,2.0,6.0,80,0.00,,,-99.99,Weather View 32 v60,2013-11-14 14:00:00,
2013-11-14 08:05:00,35.0,29.5,29.85,West,270,3.0,5.0,80,0.00,,,-99.99,Weather View 32 v60,2013-11-14 14:05:00,
2013-11-14 08:10:00,33.0,27.5,29.86,SW,225,1.0,6.0,80,0.00,,,-99.99,Weather View 32 v60,2013-11-14 14:10:00,
2013-11-14 08:15:00,33.0,27.5,29.86,SW,225,1.0,6.0,80,0.00,,,-99.99,Weather View 32 v60,2013-11-14 14:15:00,
2013-11-14 08:25:00,36.0,30.4,29.85,SW,225,1.0,6.0,80,0.00,,,-99.99,Weather View 32 v60,2013-11-14 14:25:00,
2013-11-14 08:30:00,34.0,28.5,29.86,North,0,0.0,6.0,80,0.00,,,-99.99,Weather View 32 v60,2013-11-14 14:30:00,
2013-11-14 08:35:00,37.0,31.1,29.85,WSW,248,1.0,6.0,79,0.00,,,-99.99,Weather View 32 v60,2013-11-14 14:35:00,
2013-11-14 08:40:00,34.0,28.5,29.86,West,270,4.0,6.0,80,0.00,,,-99.99,Weather View 32 v60,2013-11-14 14:40:00,
2013-11-14 08:45:00,37.0,31.1,29.85,WSW,248,2.0,6.0,79,0.00,,,-99.99,Weather View 32 v60,2013-11-14 14:45:00,
2013-11-14 08:50:00,35.0,29.5,29.86,West,270,3.0,5.0,80,0.00,,,-99.99,Weather View 32 v60,2013-11-14 14:50:00,
2013-11-14 09:00:00,38.0,32.1,29.84,SW,225,1.0,6.0,79,0.00,,,-99.99,Weather View 32 v60,2013-11-14 15:00:00,
2013-11-14 09:10:00,38.0,31.7,29.84,West,270,3.0,6.0,78,0.00,,,-99.99,Weather View 32 v60,2013-11-14 15:10:00,
2013-11-14 09:20:00,36.0,30.4,29.85,SW,225,4.0,6.0,80,0.00,,,-99.99,Weather View 32 v60,2013-11-14 15:20:00,
2013-11-14 09:25:00,39.0,32.4,29.85,WSW,248,2.0,5.0,77,0.00,,,-99.99,Weather View 32 v60,2013-11-14 15:25:00,
2013-11-14 09:35:00,39.0,32.4,29.85,SW,225,1.0,6.0,77,0.00,,,-99.99,Weather View 32 v60,2013-11-14 15:35:00,
2013-11-14 09:40:00,39.0,32.4,29.85,WSW,248,2.0,6.0,77,0.00,,,-99.99,Weather View 32 v60,2013-11-14 15:40:00,
2013-11-14 09:45:00,40.0,33.0,29.85,WSW,248,2.0,6.0,76,0.00,,,-99.99,Weather View 32 v60,2013-11-14 15:45:00,
2013-11-14 09:55:00,37.0,31.1,29.85,SW,225,3.0,6.0,79,0.00,,,-99.99,Weather View 32 v60,2013-11-14 15:55:00,
2013-11-14 10:05:00,38.0,32.1,29.84,West,270,3.0,6.0,79,0.00,,,-99.99,Weather View 32 v60,2013-11-14 16:05:00,
2013-11-14 10:15:00,38.0,31.7,29.84,WSW,248,1.0,6.0,78,0.00,,,-99.99,Weather View 32 v60,2013-11-14 16:15:00,
2013-11-14 10:20:00,41.0,33.3,29.84,SW,225,1.0,6.0,74,0.00,,,-99.99,Weather View 32 v60,2013-11-14 16:20:00,
2013-11-14 10:25:00,41.0,33.3,29.83,SSW,202,3.0,6.0,74,0.00,,,-99.99,Weather View 32 v60,2013-11-14 16:25:00,
2013-11-14 10:30:00,39.0,32.4,29.85,WSW,248,1.0,5.0,77,0.00,,,-99.99,Weather View 32 v60,2013-11-14 16:30:00,
2013-11-14 10:35:00,39.0,32.4,29.85,SW,225,1.0,6.0,77,0.00,,,-99.99,Weather View 32 v60,2013-11-14 16:35:00,
2013-11-14 10:40:00,42.0,33.6,29.83,WSW,248,4.0,6.0,72,0.00,,,-99.99,Weather View 32 v60,2013-11-14 16:40:00,
2013-11-14 10:50:00,40.0,33.0,29.85,WSW,248,3.0,6.0,76,0.00,,,-99.99,Weather View 32 v60,2013-11-14 16:50:00,
2013-11-14 10:55:00,40.0,32.7,29.84,South,180,1.0,6.0,75,0.00,,,-99.99,Weather View 32 v60,2013-11-14 16:55:00,
2013-11-14 11:00:00,40.0,32.7,29.84,WSW,248,1.0,6.0,75,0.00,,,-99.99,Weather View 32 v60,2013-11-14 17:00:00,
2013-11-14 11:05:00,43.0,33.9,29.81,SW,225,3.0,6.0,70,0.00,,,-99.99,Weather View 32 v60,2013-11-14 17:05:00,
2013-11-14 11:10:00,40.0,32.7,29.84,WSW,248,1.0,6.0,75,0.00,,,-99.99,Weather View 32 v60,2013-11-14 17:10:00,
2013-11-14 11:15:00,41.0,33.7,29.84,West,270,2.0,6.0,75,0.00,,,-99.99,Weather View 32 v60,2013-11-14 17:15:00,
2013-11-14 11:20:00,44.0,34.5,29.81,SSW,202,3.0,6.0,69,0.00,,,-99.99,Weather View 32 v60,2013-11-14 17:20:00,
2013-11-14 11:25:00,44.0,34.5,29.81,West,270,2.0,6.0,69,0.00,,,-99.99,Weather View 32 v60,2013-11-14 17:25:00,
2013-11-14 11:30:00,42.0,34.0,29.83,West,270,3.0,6.0,73,0.00,,,-99.99,Weather View 32 v60,2013-11-14 17:30:00,
2013-11-14 11:35:00,42.0,34.0,29.83,SW,225,2.0,6.0,73,0.00,,,-99.99,Weather View 32 v60,2013-11-14 17:35:00,
2013-11-14 11:45:00,43.0,34.6,29.83,West,270,4.0,6.0,72,0.00,,,-99.99,Weather View 32 v60,2013-11-14 17:45:00,
2013-11-14 11:50:00,44.0,34.1,29.80,SW,225,3.0,7.0,68,0.00,,,-99.99,Weather View 32 v60,2013-11-14 17:50:00,
2013-11-14 11:55:00,43.0,34.2,29.82,SW,225,1.0,6.0,71,0.00,,,-99.99,Weather View 32 v60,2013-11-14 17:55:00,
2013-11-14 12:30:00,44.0,34.1,29.81,WSW,248,5.0,6.0,68,0.00,,,-99.99,Weather View 32 v60,2013-11-14 18:30:00,
2013-11-14 12:35:00,44.0,34.1,29.81,South,180,2.0,6.0,68,0.00,,,-99.99,Weather View 32 v60,2013-11-14 18:35:00,
2013-11-14 12:40:00,44.0,34.1,29.80,SSW,202,3.0,6.0,68,0.00,,,-99.99,Weather View 32 v60,2013-11-14 18:40:00,
2013-11-14 12:45:00,44.0,34.1,29.80,SSW,202,4.0,7.0,68,0.00,,,-99.99,Weather View 32 v60,2013-11-14 18:45:00,
2013-11-14 13:00:00,45.0,34.7,29.79,SSW,202,4.0,8.0,67,0.00,,,-99.99,Weather View 32 v60,2013-11-14 19:00:00,
2013-11-14 13:05:00,45.0,34.3,29.79,SW,225,3.0,8.0,66,0.00,,,-99.99,Weather View 32 v60,2013-11-14 19:05:00,
2013-11-14 13:15:00,45.0,34.3,29.79,SSW,202,6.0,9.0,66,0.00,,,-99.99,Weather View 32 v60,2013-11-14 19:15:00,
2013-11-14 13:20:00,45.0,33.9,29.79,SW,225,3.0,9.0,65,0.00,,,-99.99,Weather View 32 v60,2013-11-14 19:20:00,
2013-11-14 13:25:00,45.0,33.9,29.79,West,270,2.0,9.0,65,0.00,,,-99.99,Weather View 32 v60,2013-11-14 19:25:00,
2013-11-14 13:30:00,48.0,34.8,29.77,WSW,248,3.0,8.0,60,0.00,,,-99.99,Weather View 32 v60,2013-11-14 19:30:00,
2013-11-14 13:35:00,46.0,34.5,29.78,West,270,3.0,9.0,64,0.00,,,-99.99,Weather View 32 v60,2013-11-14 19:35:00,
2013-11-14 13:45:00,46.0,34.1,29.77,WSW,248,6.0,9.0,63,0.00,,,-99.99,Weather View 32 v60,2013-11-14 19:45:00,
2013-11-14 13:50:00,47.0,35.0,29.77,SW,225,5.0,9.0,63,0.00,,,-99.99,Weather View 32 v60,2013-11-14 19:50:00,
2013-11-14 13:55:00,47.0,34.6,29.77,SW,225,4.0,9.0,62,0.00,,,-99.99,Weather View 32 v60,2013-11-14 19:55:00,
2013-11-14 14:05:00,47.0,34.6,29.77,SW,225,5.0,9.0,62,0.00,,,-99.99,Weather View 32 v60,2013-11-14 20:05:00,
2013-11-14 14:10:00,47.0,34.2,29.77,SW,225,3.0,9.0,61,0.00,,,-99.99,Weather View 32 v60,2013-11-14 20:10:00,
2013-11-14 14:20:00,48.0,34.8,29.77,SW,225,3.0,9.0,60,0.00,,,-99.99,Weather View 32 v60,2013-11-14 20:20:00,
2013-11-14 14:35:00,48.0,34.8,29.77,WSW,248,2.0,8.0,60,0.00,,,-99.99,Weather View 32 v60,2013-11-14 20:35:00,
2013-11-14 14:40:00,48.0,34.3,29.77,West,270,3.0,8.0,59,0.00,,,-99.99,Weather View 32 v60,2013-11-14 20:40:00,
2013-11-14 14:50:00,49.0,35.3,29.77,NW,315,2.0,8.0,59,0.00,,,-99.99,Weather View 32 v60,2013-11-14 20:50:00,
2013-11-14 14:55:00,49.0,35.3,29.77,SW,225,1.0,8.0,59,0.00,,,-99.99,Weather View 32 v60,2013-11-14 20:55:00,
2013-11-14 15:00:00,49.0,34.8,29.77,North,0,2.0,8.0,58,0.00,,,-99.99,Weather View 32 v60,2013-11-14 21:00:00,
2013-11-14 15:05:00,50.0,35.3,29.77,West,270,3.0,8.0,57,0.00,,,-99.99,Weather View 32 v60,2013-11-14 21:05:00,
2013-11-14 15:10:00,50.0,35.3,29.77,NW,315,3.0,7.0,57,0.00,,,-99.99,Weather View 32 v60,2013-11-14 21:10:00,
2013-11-14 15:20:00,50.0,34.9,29.77,WSW,248,1.0,7.0,56,0.00,,,-99.99,Weather View 32 v60,2013-11-14 21:20:00,
2013-11-14 15:25:00,50.0,34.9,29.77,South,180,1.0,6.0,56,0.00,,,-99.99,Weather View 32 v60,2013-11-14 21:25:00,
2013-11-14 15:30:00,50.0,34.9,29.77,WNW,292,2.0,6.0,56,0.00,,,-99.99,Weather View 32 v60,2013-11-14 21:30:00,
2013-11-14 15:35:00,50.0,34.9,29.77,South,180,3.0,6.0,56,0.00,,,-99.99,Weather View 32 v60,2013-11-14 21:35:00,
2013-11-14 15:40:00,50.0,34.9,29.77,SW,225,1.0,7.0,56,0.00,,,-99.99,Weather View 32 v60,2013-11-14 21:40:00,
2013-11-14 15:45:00,49.0,34.0,29.77,WSW,248,3.0,7.0,56,0.00,,,-99.99,Weather View 32 v60,2013-11-14 21:45:00,
2013-11-14 15:50:00,49.0,34.0,29.77,South,180,3.0,7.0,56,0.00,,,-99.99,Weather View 32 v60,2013-11-14 21:50:00,
2013-11-14 16:00:00,49.0,34.0,29.77,SW,225,2.0,7.0,56,0.00,,,-99.99,Weather View 32 v60,2013-11-14 22:00:00,
2013-11-14 16:05:00,49.0,34.0,29.77,SW,225,5.0,7.0,56,0.00,,,-99.99,Weather View 32 v60,2013-11-14 22:05:00,
2013-11-14 16:10:00,48.0,33.0,29.77,WSW,248,2.0,7.0,56,0.00,,,-99.99,Weather View 32 v60,2013-11-14 22:10:00,
2013-11-14 16:20:00,48.0,33.0,29.76,SSW,202,3.0,7.0,56,0.00,,,-99.99,Weather View 32 v60,2013-11-14 22:20:00,
2013-11-14 16:25:00,47.0,32.1,29.76,South,180,2.0,7.0,56,0.00,,,-99.99,Weather View 32 v60,2013-11-14 22:25:00,
2013-11-14 16:30:00,47.0,32.1,29.76,SSW,202,3.0,7.0,56,0.00,,,-99.99,Weather View 32 v60,2013-11-14 22:30:00,
2013-11-14 16:39:00,46.0,31.6,29.76,South,180,2.0,7.0,57,0.00,,,-99.99,Weather View 32 v60,2013-11-14 22:39:00,
2013-11-14 16:45:00,45.0,30.7,29.76,West,270,3.0,6.0,57,0.00,,,-99.99,Weather View 32 v60,2013-11-14 22:45:00,
2013-11-14 16:55:00,45.0,31.1,29.77,WNW,292,2.0,6.0,58,0.00,,,-99.99,Weather View 32 v60,2013-11-14 22:55:00,
2013-11-14 17:00:00,44.0,30.2,29.77,SSW,202,1.0,6.0,58,0.00,,,-99.99,Weather View 32 v60,2013-11-14 23:00:00,
2013-11-14 17:05:00,44.0,30.2,29.77,SW,225,0.0,6.0,58,0.00,,,-99.99,Weather View 32 v60,2013-11-14 23:05:00,
2013-11-14 17:10:00,43.0,29.6,29.78,SW,225,1.0,6.0,59,0.00,,,-99.99,Weather View 32 v60,2013-11-14 23:10:00,
2013-11-14 17:15:00,43.0,29.6,29.78,SSW,202,0.0,6.0,59,0.00,,,-99.99,Weather View 32 v60,2013-11-14 23:15:00,
2013-11-14 17:20:00,42.0,28.7,29.78,SW,225,1.0,6.0,59,0.00,,,-99.99,Weather View 32 v60,2013-11-14 23:20:00,
2013-11-14 17:30:00,42.0,29.1,29.78,WNW,292,3.0,6.0,60,0.00,,,-99.99,Weather View 32 v60,2013-11-14 23:30:00,
2013-11-14 17:35:00,41.0,28.6,29.78,WSW,248,3.0,6.0,61,0.00,,,-99.99,Weather View 32 v60,2013-11-14 23:35:00,
2013-11-14 17:40:00,41.0,28.6,29.79,West,270,1.0,6.0,61,0.00,,,-99.99,Weather View 32 v60,2013-11-14 23:40:00,
2013-11-14 17:45:00,40.0,28.0,29.79,SSW,202,1.0,6.0,62,0.00,,,-99.99,Weather View 32 v60,2013-11-14 23:45:00,
2013-11-14 17:50:00,40.0,28.0,29.79,WSW,248,1.0,5.0,62,0.00,,,-99.99,Weather View 32 v60,2013-11-14 23:50:00,
2013-11-14 17:55:00,39.0,27.1,29.79,SW,225,1.0,5.0,62,0.00,,,-99.99,Weather View 32 v60,2013-11-14 23:55:00,
2013-11-14 18:00:00,39.0,27.5,29.79,WSW,248,1.0,5.0,63,0.00,,,-99.99,Weather View 32 v60,2013-11-15 00:00:00,
2013-11-14 18:05:00,39.0,27.8,29.79,West,270,1.0,5.0,64,0.00,,,-99.99,Weather View 32 v60,2013-11-15 00:05:00,
2013-11-14 18:10:00,38.0,26.9,29.79,SSW,202,1.0,5.0,64,0.00,,,-99.99,Weather View 32 v60,2013-11-15 00:10:00,
2013-11-14 18:15:00,38.0,27.3,29.79,SW,225,1.0,5.0,65,0.00,,,-99.99,Weather View 32 v60,2013-11-15 00:15:00,
2013-11-14 18:20:00,38.0,27.3,29.80,SW,225,1.0,5.0,65,0.00,,,-99.99,Weather View 32 v60,2013-11-15 00:20:00,
2013-11-14 18:30:00,37.0,27.1,29.80,SSW,202,1.0,5.0,67,0.00,,,-99.99,Weather View 32 v60,2013-11-15 00:30:00,
2013-11-14 18:35:00,37.0,27.1,29.80,NW,315,2.0,5.0,67,0.00,,,-99.99,Weather View 32 v60,2013-11-15 00:35:00,
2013-11-14 18:40:00,37.0,27.1,29.80,SW,225,1.0,4.0,67,0.00,,,-99.99,Weather View 32 v60,2013-11-15 00:40:00,
2013-11-14 18:50:00,37.0,27.4,29.80,WNW,292,1.0,4.0,68,0.00,,,-99.99,Weather View 32 v60,2013-11-15 00:50:00,
2013-11-14 18:55:00,37.0,27.4,29.80,WSW,248,1.0,4.0,68,0.00,,,-99.99,Weather View 32 v60,2013-11-15 00:55:00,
2013-11-14 19:00:00,37.0,27.8,29.80,West,270,1.0,5.0,69,0.00,,,-99.99,Weather View 32 v60,2013-11-15 01:00:00,
2013-11-14 19:05:00,37.0,27.8,29.80,West,270,1.0,5.0,69,0.00,,,-99.99,Weather View 32 v60,2013-11-15 01:05:00,
2013-11-14 19:10:00,37.0,28.1,29.80,West,270,3.0,5.0,70,0.00,,,-99.99,Weather View 32 v60,2013-11-15 01:10:00,
2013-11-14 19:20:00,37.0,28.5,29.80,WSW,248,2.0,5.0,71,0.00,,,-99.99,Weather View 32 v60,2013-11-15 01:20:00,
2013-11-14 19:25:00,37.0,28.5,29.80,SW,225,3.0,5.0,71,0.00,,,-99.99,Weather View 32 v60,2013-11-15 01:25:00,
2013-11-14 19:35:00,37.0,28.8,29.80,SSW,202,3.0,5.0,72,0.00,,,-99.99,Weather View 32 v60,2013-11-15 01:35:00,
2013-11-14 19:40:00,37.0,28.8,29.81,SSW,202,1.0,5.0,72,0.00,,,-99.99,Weather View 32 v60,2013-11-15 01:40:00,
2013-11-14 19:45:00,37.0,28.8,29.81,SW,225,3.0,5.0,72,0.00,,,-99.99,Weather View 32 v60,2013-11-15 01:45:00,
2013-11-14 19:50:00,37.0,29.1,29.81,WSW,248,3.0,5.0,73,0.00,,,-99.99,Weather View 32 v60,2013-11-15 01:50:00,
2013-11-14 19:55:00,37.0,29.1,29.81,SSW,202,4.0,5.0,73,0.00,,,-99.99,Weather View 32 v60,2013-11-15 01:55:00,
2013-11-14 20:00:00,37.0,29.1,29.81,SW,225,1.0,5.0,73,0.00,,,-99.99,Weather View 32 v60,2013-11-15 02:00:00,
2013-11-14 20:05:00,36.0,28.2,29.81,WSW,248,1.0,5.0,73,0.00,,,-99.99,Weather View 32 v60,2013-11-15 02:05:00,
2013-11-14 20:10:00,36.0,28.2,29.81,SW,225,1.0,5.0,73,0.00,,,-99.99,Weather View 32 v60,2013-11-15 02:10:00,
2013-11-14 20:15:00,36.0,28.5,29.81,SW,225,2.0,5.0,74,0.00,,,-99.99,Weather View 32 v60,2013-11-15 02:15:00,
2013-11-14 20:25:00,36.0,28.5,29.81,SW,225,2.0,5.0,74,0.00,,,-99.99,Weather View 32 v60,2013-11-15 02:25:00,
2013-11-14 20:30:00,35.0,27.5,29.82,SW,225,1.0,5.0,74,0.00,,,-99.99,Weather View 32 v60,2013-11-15 02:30:00,
2013-11-14 20:35:00,35.0,27.5,29.82,SW,225,2.0,5.0,74,0.00,,,-99.99,Weather View 32 v60,2013-11-15 02:35:00,
2013-11-14 20:40:00,35.0,27.5,29.82,SW,225,2.0,5.0,74,0.00,,,-99.99,Weather View 32 v60,2013-11-15 02:40:00,
2013-11-14 20:45:00,34.0,26.6,29.82,WSW,248,3.0,5.0,74,0.00,,,-99.99,Weather View 32 v60,2013-11-15 02:45:00,
2013-11-14 20:50:00,34.0,26.9,29.82,West,270,1.0,5.0,75,0.00,,,-99.99,Weather View 32 v60,2013-11-15 02:50:00,
2013-11-14 20:55:00,34.0,26.9,29.82,WSW,248,0.0,5.0,75,0.00,,,-99.99,Weather View 32 v60,2013-11-15 02:55:00,
2013-11-14 21:00:00,33.0,25.9,29.83,SW,225,0.0,4.0,75,0.00,,,-99.99,Weather View 32 v60,2013-11-15 03:00:00,
2013-11-14 21:05:00,33.0,25.9,29.83,WSW,248,1.0,4.0,75,0.00,,,-99.99,Weather View 32 v60,2013-11-15 03:05:00,
2013-11-14 21:15:00,32.0,25.0,29.83,SW,225,2.0,4.0,75,0.00,,,-99.99,Weather View 32 v60,2013-11-15 03:15:00,
2013-11-14 21:20:00,32.0,25.0,29.83,WSW,248,1.0,4.0,75,0.00,,,-99.99,Weather View 32 v60,2013-11-15 03:20:00,
2013-11-14 21:25:00,32.0,25.3,29.83,SW,225,0.0,4.0,76,0.00,,,-99.99,Weather View 32 v60,2013-11-15 03:25:00,
2013-11-14 21:30:00,31.0,24.3,29.84,SW,225,0.0,4.0,76,0.00,,,-99.99,Weather View 32 v60,2013-11-15 03:30:00,
2013-11-14 21:35:00,31.0,24.3,29.84,WSW,248,0.0,4.0,76,0.00,,,-99.99,Weather View 32 v60,2013-11-15 03:35:00,
2013-11-14 21:40:00,31.0,24.3,29.84,SW,225,0.0,4.0,76,0.00,,,-99.99,Weather View 32 v60,2013-11-15 03:40:00,
2013-11-14 21:45:00,31.0,24.6,29.84,WSW,248,3.0,4.0,77,0.00,,,-99.99,Weather View 32 v60,2013-11-15 03:45:00,
2013-11-14 21:50:00,30.0,23.7,29.84,WSW,248,1.0,3.0,77,0.00,,,-99.99,Weather View 32 v60,2013-11-15 03:50:00,
2013-11-14 21:55:00,30.0,23.7,29.84,WSW,248,1.0,3.0,77,0.00,,,-99.99,Weather View 32 v60,2013-11-15 03:55:00,
2013-11-14 22:00:00,30.0,23.7,29.84,WSW,248,1.0,3.0,77,0.00,,,-99.99,Weather View 32 v60,2013-11-15 04:00:00,
2013-11-14 22:05:00,30.0,24.0,29.84,SW,225,1.0,3.0,78,0.00,,,-99.99,Weather View 32 v60,2013-11-15 04:05:00,
2013-11-14 22:10:00,30.0,24.0,29.84,SW,225,1.0,3.0,78,0.00,,,-99.99,Weather View 32 v60,2013-11-15 04:10:00,
2013-11-14 22:15:00,28.0,22.6,29.84,SSW,202,2.0,4.0,80,0.00,,,-99.99,Weather View 32 v60,2013-11-15 04:15:00,
2013-11-14 22:20:00,29.0,23.0,29.84,SW,225,2.0,4.0,78,0.00,,,-99.99,Weather View 32 v60,2013-11-15 04:20:00,
2013-11-14 22:25:00,29.0,23.0,29.85,SW,225,1.0,4.0,78,0.00,,,-99.99,Weather View 32 v60,2013-11-15 04:25:00,
2013-11-14 22:30:00,29.0,23.3,29.85,SW,225,2.0,4.0,79,0.00,,,-99.99,Weather View 32 v60,2013-11-15 04:30:00,
2013-11-14 22:35:00,28.0,22.6,29.84,WSW,248,3.0,3.0,80,0.00,,,-99.99,Weather View 32 v60,2013-11-15 04:35:00,
2013-11-14 22:40:00,28.0,22.3,29.85,WSW,248,1.0,4.0,79,0.00,,,-99.99,Weather View 32 v60,2013-11-15 04:40:00,
2013-11-14 22:45:00,28.0,22.3,29.85,SW,225,1.0,4.0,79,0.00,,,-99.99,Weather View 32 v60,2013-11-15 04:45:00,
2013-11-14 22:50:00,28.0,22.3,29.85,WSW,248,1.0,4.0,79,0.00,,,-99.99,Weather View 32 v60,2013-11-15 04:50:00,
2013-11-14 22:55:00,28.0,22.6,29.85,SW,225,1.0,4.0,80,0.00,,,-99.99,Weather View 32 v60,2013-11-15 04:55:00,
2013-11-14 23:00:00,28.0,22.6,29.85,WSW,248,1.0,4.0,80,0.00,,,-99.99,Weather View 32 v60,2013-11-15 05:00:00,
2013-11-14 23:05:00,27.0,21.9,29.85,SW,225,2.0,5.0,81,0.00,,,-99.99,Weather View 32 v60,2013-11-15 05:05:00,
2013-11-14 23:10:00,27.0,21.9,29.85,SW,225,3.0,5.0,81,0.00,,,-99.99,Weather View 32 v60,2013-11-15 05:10:00,
2013-11-14 23:15:00,27.0,21.9,29.85,SW,225,2.0,5.0,81,0.00,,,-99.99,Weather View 32 v60,2013-11-15 05:15:00,
2013-11-14 23:20:00,27.0,21.9,29.84,SW,225,3.0,5.0,81,0.00,,,-99.99,Weather View 32 v60,2013-11-15 05:20:00,
2013-11-14 23:25:00,26.0,21.0,29.85,SW,225,2.0,5.0,81,0.00,,,-99.99,Weather View 32 v60,2013-11-15 05:25:00,
2013-11-14 23:30:00,26.0,21.0,29.84,SW,225,0.0,5.0,81,0.00,,,-99.99,Weather View 32 v60,2013-11-15 05:30:00,
2013-11-14 23:35:00,26.0,21.0,29.84,SW,225,0.0,5.0,81,0.00,,,-99.99,Weather View 32 v60,2013-11-15 05:35:00,
2013-11-14 23:40:00,26.0,21.0,29.84,SSW,202,1.0,5.0,81,0.00,,,-99.99,Weather View 32 v60,2013-11-15 05:40:00,
2013-11-14 23:45:00,26.0,21.3,29.84,WSW,248,3.0,5.0,82,0.00,,,-99.99,Weather View 32 v60,2013-11-15 05:45:00,
2013-11-14 23:50:00,26.0,21.3,29.84,SSW,202,2.0,5.0,82,0.00,,,-99.99,Weather View 32 v60,2013-11-15 05:50:00,
2013-11-14 23:55:00,26.0,21.3,29.84,SW,225,3.0,5.0,82,0.00,,,-99.99,Weather View 32 v60,2013-11-15 05:55:00,